Marfa, TX

5:50 AM CDT on April 24, 2018 (GMT -0500)
Marfa Municipal

Weather History for KMRF - May, 2014

Change the Weather History Date:

Wednesday, May 7, 2014

  Actual Average Record
Temperature  
Mean Temperature 64 °F -  
Max Temperature 84 °F 80 °F 91 °F (2000)
Min Temperature 44 °F 48 °F 39 °F (1999)
Degree Days  
Heating Degree Days 1    
Growing Degree Days 14 (Base 50)    
Moisture  
Dew Point 34 °F    
Average Humidity 31    
Maximum Humidity 66    
Minimum Humidity 14    
Precipitation  
Precipitation 0.00 in - - ()
Sea Level Pressure  
Sea Level Pressure 29.90 in    
Wind  
Wind Speed 13 mph (SSW)    
Max Wind Speed 30 mph    
Max Gust Speed 38 mph    
Visibility 10 miles    
Events      
Averages and records for this station are not official NWS values.
T = Trace of Precipitation, MM = Missing Value Source: NWS Daily Summary

Daily Weather History Graph

Daily Weather History Graph

Search for Another Location

Airport or City:

Astronomy

May. 07, 2014 Rise Set
Actual Time 7:07 AM CDT 8:38 PM CDT
Civil Twilight 6:41 AM CDT 9:03 PM CDT
Nautical Twilight 6:10 AM CDT 9:34 PM CDT
Astronomical Twilight 5:38 AM CDT 10:07 PM CDT
Moon 2:13 PM CDT (5/7) 2:38 AM CDT (5/7)
Length of Visible Light 14h 22m
Length of Day
13h 30m
First Quarter, 55% of the Moon is Illuminated
May 7
First Quarter
May 14
Full
May 21
Last Quarter
May 28
New
Jun 5
First Quarter

Hourly Weather History & Observations

Time (CDT) Temp. Windchill Dew Point Humidity Pressure Visibility Wind Dir Wind Speed Gust Speed Precip Events Conditions
12:15 AM 62.6 °F - 37.4 °F 39% 29.96 in 10.0 mi ESE 6.9 mph - N/A   Scattered Clouds
12:35 AM 66.2 °F - 37.4 °F 35% 29.95 in 10.0 mi South 11.5 mph - N/A   Mostly Cloudy
12:55 AM 68.0 °F - 39.2 °F 35% 29.93 in 6.0 mi South 29.9 mph 34.5 mph N/A   Overcast
1:15 AM 69.8 °F - 39.2 °F 33% 29.95 in 10.0 mi South 19.6 mph 34.5 mph N/A   Overcast
1:35 AM 68.0 °F - 39.2 °F 35% 29.92 in 10.0 mi South 17.3 mph 26.5 mph N/A   Overcast
1:55 AM 69.8 °F - 39.2 °F 33% 29.92 in 10.0 mi South 17.3 mph 27.6 mph N/A   Overcast
2:15 AM 68.0 °F - 39.2 °F 35% 29.91 in 10.0 mi SW 9.2 mph - N/A   Scattered Clouds
2:35 AM 64.4 °F - 41.0 °F 42% 29.91 in 10.0 mi South 9.2 mph - N/A   Clear
2:55 AM 62.6 °F - 42.8 °F 48% 29.91 in 10.0 mi South 6.9 mph - N/A   Clear
3:15 AM 60.8 °F - 42.8 °F 52% 29.91 in 10.0 mi SSE 5.8 mph - N/A   Clear
3:35 AM 59.0 °F - 41.0 °F 51% 29.91 in 10.0 mi SSE 5.8 mph - N/A   Clear
3:55 AM 57.2 °F - 41.0 °F 55% 29.91 in 10.0 mi South 4.6 mph - N/A   Clear
4:15 AM 57.2 °F - 41.0 °F 55% 29.92 in 10.0 mi South 5.8 mph - N/A   Clear
4:35 AM 57.2 °F - 39.2 °F 51% 29.91 in 10.0 mi South 3.5 mph - N/A   Clear
4:55 AM 53.6 °F - 37.4 °F 54% 29.92 in 10.0 mi Calm Calm - N/A   Clear
5:15 AM 51.8 °F - 35.6 °F 54% 29.92 in 10.0 mi Calm Calm - N/A   Clear
5:35 AM 48.2 °F - 33.8 °F 58% 29.92 in 10.0 mi Calm Calm - N/A   Clear
5:55 AM 46.4 °F - 33.8 °F 62% 29.91 in 10.0 mi Calm Calm - N/A   Clear
6:15 AM 46.4 °F 45.2 °F 35.6 °F 66% 29.91 in 10.0 mi NNW 3.5 mph - N/A   Clear
6:35 AM 46.4 °F 44.3 °F 33.8 °F 62% 29.91 in 10.0 mi North 4.6 mph - N/A   Clear
6:55 AM 46.4 °F 45.2 °F 33.8 °F 62% 29.92 in 10.0 mi North 3.5 mph - N/A   Clear
7:15 AM 44.6 °F 42.2 °F 33.8 °F 66% 29.93 in 10.0 mi NNE 4.6 mph - N/A   Clear
7:35 AM 48.2 °F - 35.6 °F 62% 29.93 in 10.0 mi NE 3.5 mph - N/A   Clear
7:55 AM 51.8 °F - 37.4 °F 58% 29.94 in 10.0 mi Calm Calm - N/A   Clear
8:15 AM 55.4 °F - 37.4 °F 51% 29.95 in 10.0 mi Calm Calm - N/A   Clear
8:35 AM 60.8 °F - 39.2 °F 45% 29.95 in 10.0 mi SSW 5.8 mph - N/A   Clear
8:55 AM 62.6 °F - 41.0 °F 45% 29.95 in 10.0 mi South 6.9 mph - N/A   Clear
9:15 AM 66.2 °F - 42.8 °F 43% 29.95 in 10.0 mi South 11.5 mph - N/A   Clear
9:35 AM 69.8 °F - 44.6 °F 40% 29.95 in 10.0 mi South 10.4 mph - N/A   Clear
9:55 AM 73.4 °F - 44.6 °F 36% 29.95 in 10.0 mi SSW 20.7 mph 27.6 mph N/A   Clear
10:15 AM 73.4 °F - 42.8 °F 33% 29.95 in 10.0 mi South 18.4 mph 26.5 mph N/A   Clear
10:55 AM 75.2 °F - 39.2 °F 27% 29.95 in 10.0 mi SSW 24.2 mph 31.1 mph N/A   Clear
11:15 AM 77.0 °F - 37.4 °F 24% 29.95 in 10.0 mi SW 21.9 mph 31.1 mph N/A   Clear
11:35 AM 78.8 °F - 39.2 °F 24% 29.94 in 10.0 mi SSW 24.2 mph 29.9 mph N/A   Clear
12:15 PM 78.8 °F - 37.4 °F 23% 29.95 in 10.0 mi SSW 23.0 mph 26.5 mph N/A   Clear
12:35 PM 78.8 °F - 35.6 °F 21% 29.94 in 10.0 mi SSW 26.5 mph 32.2 mph N/A   Clear
12:55 PM 80.6 °F - 33.8 °F 18% 29.94 in 10.0 mi SSW 26.5 mph 33.4 mph N/A   Clear
1:15 PM 80.6 °F - 32.0 °F 17% 29.93 in 10.0 mi SW 25.3 mph 32.2 mph N/A   Clear
1:35 PM 82.4 °F - 33.8 °F 17% 29.92 in 10.0 mi SSW 25.3 mph 32.2 mph N/A   Clear
1:55 PM 82.4 °F - 35.6 °F 19% 29.91 in 10.0 mi SSW 18.4 mph 32.2 mph N/A   Partly Cloudy
2:15 PM 82.4 °F - 35.6 °F 19% 29.91 in 10.0 mi SSW 18.4 mph 31.1 mph N/A   Scattered Clouds
2:35 PM 82.4 °F - 35.6 °F 19% 29.90 in 10.0 mi SSW 26.5 mph 34.5 mph N/A   Partly Cloudy
2:55 PM 82.4 °F - 33.8 °F 17% 29.90 in 10.0 mi South 18.4 mph 32.2 mph N/A   Partly Cloudy
3:15 PM 84.2 °F - 33.8 °F 16% 29.89 in 10.0 mi SSW 24.2 mph 32.2 mph N/A   Partly Cloudy
3:35 PM 84.2 °F - 33.8 °F 16% 29.89 in 10.0 mi SSW 19.6 mph 31.1 mph N/A   Partly Cloudy
3:55 PM 84.2 °F - 33.8 °F 16% 29.88 in 10.0 mi SW 25.3 mph 34.5 mph N/A   Scattered Clouds
4:15 PM 84.2 °F - 30.2 °F 14% 29.87 in 10.0 mi SW 20.7 mph 38.0 mph N/A   Partly Cloudy
4:35 PM 82.4 °F - 32.0 °F 16% 29.87 in 10.0 mi SSW 19.6 mph 32.2 mph N/A   Partly Cloudy
4:55 PM 82.4 °F - 33.8 °F 17% 29.86 in 10.0 mi SW 25.3 mph 33.4 mph N/A   Scattered Clouds
5:15 PM 80.6 °F - 30.2 °F 16% 29.86 in 10.0 mi SW 24.2 mph 32.2 mph N/A   Partly Cloudy
5:35 PM 80.6 °F - 30.2 °F 16% 29.85 in 10.0 mi South 16.1 mph 28.8 mph N/A   Scattered Clouds
5:55 PM 80.6 °F - 30.2 °F 16% 29.84 in 10.0 mi SW 23.0 mph 29.9 mph N/A   Mostly Cloudy
6:15 PM 80.6 °F - 30.2 °F 16% 29.83 in 10.0 mi South 23.0 mph 28.8 mph N/A   Partly Cloudy
6:35 PM 80.6 °F - 30.2 °F 16% 29.83 in 10.0 mi SSW 18.4 mph 31.1 mph N/A   Scattered Clouds
6:55 PM 80.6 °F - 28.4 °F 15% 29.83 in 10.0 mi South 20.7 mph 31.1 mph N/A   Mostly Cloudy
7:15 PM 80.6 °F - 28.4 °F 15% 29.82 in 10.0 mi SSW 20.7 mph 26.5 mph N/A   Partly Cloudy
7:35 PM 80.6 °F - 28.4 °F 15% 29.82 in 10.0 mi SSW 16.1 mph 23.0 mph N/A   Partly Cloudy
7:55 PM 80.6 °F - 28.4 °F 15% 29.81 in 10.0 mi SSW 15.0 mph 19.6 mph N/A   Clear
8:15 PM 78.8 °F - 28.4 °F 16% 29.81 in 10.0 mi South 15.0 mph 20.7 mph N/A   Clear
8:35 PM 78.8 °F - 28.4 °F 16% 29.81 in 10.0 mi South 11.5 mph - N/A   Clear
8:55 PM 75.2 °F - 28.4 °F 18% 29.81 in 10.0 mi South 9.2 mph - N/A   Clear
9:15 PM 73.4 °F - 28.4 °F 19% 29.82 in 10.0 mi South 9.2 mph - N/A   Clear
9:35 PM 73.4 °F - 26.6 °F 18% 29.83 in 10.0 mi SSW 11.5 mph - N/A   Clear
9:55 PM 77.0 °F - 24.8 °F 14% 29.84 in 10.0 mi West 18.4 mph - N/A   Clear
10:15 PM 75.2 °F - 23.0 °F 14% 29.85 in 10.0 mi WNW 15.0 mph - N/A   Clear
10:35 PM 73.4 °F - 23.0 °F 15% 29.86 in 10.0 mi WNW 15.0 mph - N/A   Clear
10:55 PM 71.6 °F - 23.0 °F 16% 29.87 in 10.0 mi WNW 13.8 mph - N/A   Clear
11:15 PM 71.6 °F - 21.2 °F 15% 29.89 in 10.0 mi WNW 10.4 mph - N/A   Clear
11:35 PM 69.8 °F - 19.4 °F 15% 29.90 in 7.0 mi WNW 15.0 mph 18.4 mph N/A   Partly Cloudy
11:55 PM 68.0 °F - 17.6 °F 15% 29.92 in 7.0 mi NW 13.8 mph - N/A   Mostly Cloudy